TimeEST,TemperatureF,Dew PointF,Humidity,Sea Level PressureIn,VisibilityMPH,Wind Direction,Wind SpeedMPH,Gust SpeedMPH,PrecipitationIn,Events,Conditions,WindDirDegrees,DateUTC
12:55 AM,67.6,53.1,59,30.02,10.0,South,3.5,-,N/A,,Clear,180,2013-01-31 05:55:00
1:41 AM,66.2,55.4,68,30.02,4.0,Calm,Calm,-,N/A,,Haze,0,2013-01-31 06:41:00
1:55 AM,67.3,55.8,66,30.01,6.0,Calm,Calm,-,N/A,,Haze,0,2013-01-31 06:55:00
2:04 AM,66.2,55.4,68,30.01,1.2,Calm,Calm,-,N/A,,Haze,0,2013-01-31 07:04:00
2:08 AM,66.2,55.4,68,30.01,1.0,Calm,Calm,-,N/A,,Haze,0,2013-01-31 07:08:00
2:10 AM,68.0,55.4,64,30.01,0.8,Calm,Calm,-,N/A,,Haze,0,2013-01-31 07:10:00
2:12 AM,68.0,55.4,64,30.01,1.0,Calm,Calm,-,N/A,,Haze,0,2013-01-31 07:12:00
2:18 AM,68.0,55.4,64,30.01,1.0,Calm,Calm,-,N/A,,Haze,0,2013-01-31 07:18:00
2:19 AM,68.0,55.4,64,30.01,1.2,Calm,Calm,-,N/A,,Haze,0,2013-01-31 07:19:00
2:23 AM,68.0,55.4,64,30.01,1.2,Calm,Calm,-,N/A,,Haze,0,2013-01-31 07:23:00
2:26 AM,68.0,55.4,64,30.01,1.0,Calm,Calm,-,N/A,,Haze,0,2013-01-31 07:26:00
2:29 AM,66.2,55.4,68,30.01,0.8,Calm,Calm,-,N/A,,Haze,0,2013-01-31 07:29:00
2:35 AM,66.2,55.4,68,30.01,1.0,South,3.5,-,N/A,,Haze,170,2013-01-31 07:35:00
2:43 AM,66.2,55.4,68,30.01,0.8,Calm,Calm,-,N/A,,Haze,0,2013-01-31 07:43:00
2:47 AM,66.2,55.4,68,30.00,0.8,South,3.5,-,N/A,,Haze,170,2013-01-31 07:47:00
2:55 AM,66.9,55.2,66,30.00,0.8,South,3.5,-,N/A,,Haze,170,2013-01-31 07:55:00
2:56 AM,66.2,55.4,68,30.00,0.5,South,3.5,-,N/A,,Haze,170,2013-01-31 07:56:00
3:06 AM,66.2,55.4,68,30.00,0.8,South,4.6,-,N/A,,Haze,170,2013-01-31 08:06:00
3:08 AM,66.2,55.4,68,30.00,0.8,South,5.8,-,N/A,,Haze,170,2013-01-31 08:08:00
3:10 AM,66.2,55.4,68,29.99,1.0,South,5.8,-,N/A,,Haze,170,2013-01-31 08:10:00
3:14 AM,68.0,55.4,64,29.99,2.0,South,5.8,-,N/A,,Haze,170,2013-01-31 08:14:00
3:16 AM,68.0,55.4,64,29.99,3.0,South,5.8,-,N/A,,Haze,170,2013-01-31 08:16:00
3:48 AM,68.0,53.6,60,29.99,6.0,SSE,4.6,-,N/A,,Haze,160,2013-01-31 08:48:00
3:55 AM,68.0,54.3,62,29.99,6.0,SSE,4.6,-,N/A,,Haze,160,2013-01-31 08:55:00
4:01 AM,68.0,55.4,64,29.99,9.0,SSE,5.8,-,N/A,,Clear,160,2013-01-31 09:01:00
4:55 AM,68.2,54.5,62,29.99,6.0,SSW,3.5,-,N/A,,Haze,200,2013-01-31 09:55:00
5:07 AM,68.0,55.4,64,30.00,1.8,Calm,Calm,-,N/A,,Haze,0,2013-01-31 10:07:00
5:10 AM,68.0,55.4,64,30.00,1.2,SSW,3.5,-,N/A,,Haze,200,2013-01-31 10:10:00
5:15 AM,68.0,55.4,64,29.99,1.5,South,3.5,-,N/A,,Haze,190,2013-01-31 10:15:00
5:19 AM,68.0,55.4,64,29.99,1.2,South,3.5,-,N/A,,Haze,170,2013-01-31 10:19:00
5:21 AM,68.0,55.4,64,29.99,1.0,South,3.5,-,N/A,,Haze,170,2013-01-31 10:21:00
5:23 AM,68.0,55.4,64,29.99,0.8,South,3.5,-,N/A,,Haze,170,2013-01-31 10:23:00
5:25 AM,68.0,53.6,60,29.99,0.8,SSE,4.6,-,N/A,,Haze,160,2013-01-31 10:25:00
5:40 AM,66.2,53.6,64,30.00,0.5,SSE,4.6,-,N/A,,Haze,160,2013-01-31 10:40:00
5:44 AM,66.2,53.6,64,30.00,0.5,SSE,4.6,-,N/A,,Haze,160,2013-01-31 10:44:00
5:49 AM,66.2,53.6,64,30.00,0.5,South,3.5,-,N/A,,Haze,170,2013-01-31 10:49:00
5:55 AM,66.9,53.1,61,30.00,0.5,South,3.5,-,N/A,,Haze,170,2013-01-31 10:55:00
6:06 AM,68.0,51.8,56,30.01,0.5,South,3.5,-,N/A,,Haze,190,2013-01-31 11:06:00
6:09 AM,66.2,51.8,60,30.01,0.5,South,3.5,-,N/A,,Haze,180,2013-01-31 11:09:00
6:11 AM,66.2,51.8,60,30.00,0.5,South,3.5,-,N/A,,Haze,180,2013-01-31 11:11:00
6:15 AM,66.2,51.8,60,30.00,0.5,South,3.5,-,N/A,,Haze,170,2013-01-31 11:15:00
6:23 AM,66.2,51.8,60,30.00,0.8,South,4.6,-,N/A,,Haze,170,2013-01-31 11:23:00
6:24 AM,66.2,51.8,60,30.01,0.8,South,4.6,-,N/A,,Haze,170,2013-01-31 11:24:00
6:31 AM,66.2,50.0,56,30.01,1.0,South,4.6,-,N/A,,Haze,170,2013-01-31 11:31:00
6:33 AM,68.0,50.0,52,30.01,1.2,South,4.6,-,N/A,,Haze,170,2013-01-31 11:33:00
6:35 AM,68.0,50.0,52,30.01,1.5,South,3.5,-,N/A,,Haze,180,2013-01-31 11:35:00
6:38 AM,68.0,50.0,52,30.01,3.0,South,3.5,-,N/A,,Haze,190,2013-01-31 11:38:00
6:45 AM,68.0,51.8,56,30.01,2.5,South,3.5,-,N/A,,Haze,190,2013-01-31 11:45:00
6:47 AM,68.0,51.8,56,30.01,3.0,South,3.5,-,N/A,,Haze,190,2013-01-31 11:47:00
6:55 AM,67.6,51.1,55,30.02,3.0,South,3.5,-,N/A,,Haze,180,2013-01-31 11:55:00
6:56 AM,68.0,50.0,52,30.02,1.8,South,3.5,-,N/A,,Haze,170,2013-01-31 11:56:00
6:58 AM,68.0,51.8,56,30.02,1.2,South,3.5,-,N/A,,Haze,180,2013-01-31 11:58:00
7:01 AM,68.0,51.8,56,30.02,1.0,South,3.5,-,N/A,,Haze,180,2013-01-31 12:01:00
7:06 AM,68.0,50.0,52,30.02,1.2,South,4.6,-,N/A,,Haze,170,2013-01-31 12:06:00
7:08 AM,68.0,50.0,52,30.02,1.5,South,3.5,-,N/A,,Haze,170,2013-01-31 12:08:00
7:11 AM,68.0,50.0,52,30.03,2.0,South,3.5,-,N/A,,Haze,180,2013-01-31 12:11:00
7:13 AM,68.0,50.0,52,30.02,3.0,South,3.5,-,N/A,,Haze,180,2013-01-31 12:13:00
7:55 AM,70.0,49.8,49,30.04,10.0,South,4.6,-,N/A,,Clear,180,2013-01-31 12:55:00
8:55 AM,72.0,48.7,44,30.07,10.0,WSW,4.6,-,N/A,,Clear,240,2013-01-31 13:55:00
9:55 AM,75.6,31.6,20,30.09,10.0,WSW,8.1,-,N/A,,Clear,250,2013-01-31 14:55:00
9:59 AM,77.0,33.8,21,30.09,10.0,NW,15.0,20.7,N/A,,Mostly Cloudy,320,2013-01-31 14:59:00
10:26 AM,66.2,37.4,35,30.10,10.0,NNW,12.7,-,N/A,,Mostly Cloudy,340,2013-01-31 15:26:00
10:33 AM,66.2,41.0,40,30.11,10.0,NNW,17.3,-,N/A,Rain,Light Rain,330,2013-01-31 15:33:00
10:55 AM,64.6,43.0,45,30.12,10.0,NNW,19.6,-,0.00,,Mostly Cloudy,340,2013-01-31 15:55:00
10:59 AM,64.4,44.6,49,30.12,10.0,NNW,15.0,-,N/A,,Mostly Cloudy,330,2013-01-31 15:59:00
11:55 AM,69.8,33.8,27,30.11,10.0,NW,15.0,-,0.00,,Clear,320,2013-01-31 16:55:00
12:55 PM,72.1,34.0,25,30.09,10.0,NNW,8.1,-,N/A,,Clear,340,2013-01-31 17:55:00
1:55 PM,74.5,38.3,27,30.07,10.0,NNW,5.8,-,N/A,,Clear,340,2013-01-31 18:55:00
2:55 PM,73.0,36.7,27,30.06,10.0,NNW,8.1,-,N/A,,Partly Cloudy,330,2013-01-31 19:55:00
3:55 PM,70.9,35.4,27,30.08,10.0,NW,12.7,-,N/A,,Partly Cloudy,320,2013-01-31 20:55:00
4:55 PM,68.2,33.4,28,30.09,10.0,NNW,15.0,-,N/A,,Partly Cloudy,330,2013-01-31 21:55:00
5:22 PM,66.2,32.0,28,30.10,10.0,NNW,17.3,-,N/A,Rain,Light Rain,330,2013-01-31 22:22:00
5:32 PM,64.4,30.2,28,30.10,10.0,North,11.5,-,N/A,,Partly Cloudy,350,2013-01-31 22:32:00
5:55 PM,65.3,30.0,27,30.12,10.0,NNW,11.5,-,0.00,,Mostly Cloudy,330,2013-01-31 22:55:00
6:55 PM,64.9,29.7,27,30.13,10.0,North,9.2,-,N/A,,Overcast,360,2013-01-31 23:55:00
7:55 PM,65.1,27.9,25,30.15,10.0,NNE,9.2,-,N/A,,Partly Cloudy,20,2013-02-01 00:55:00
8:55 PM,64.4,27.5,25,30.17,10.0,North,4.6,-,N/A,,Clear,360,2013-02-01 01:55:00
9:55 PM,64.8,26.8,24,30.18,10.0,NNW,5.8,-,N/A,,Mostly Cloudy,330,2013-02-01 02:55:00
10:55 PM,63.5,25.3,23,30.18,10.0,NW,8.1,-,N/A,,Scattered Clouds,320,2013-02-01 03:55:00
11:55 PM,62.6,22.8,22,30.18,10.0,NNW,9.2,-,N/A,,Partly Cloudy,330,2013-02-01 04:55:00